Location: Rodson Ranch
(38.7188°N, 119.3202°W)
Time: 13:41:15
(UTC+00:00)

Cosmos 1455 - Pass Details

Date: 29 October 2020
Orbit: 499 x 521 km, 82.5° (Epoch: 01 December)

Event Time Altitude Azimuth Distance (km) Brightness Sun altitude
Rises 13:31:31 0° 354° (N) 2,657 5.7 -10.3°
Reaches altitude 10° 13:33:40 10° 356° (N) 1,765 4.8 -9.9°
Maximum altitude 13:37:33 75° 82° (E) 544 2.4 -9.2°
Drops below altitude 10° 13:41:23 10° 169° (SSE) 1,750 5.2 -8.5°
Sets 13:43:30 0° 170° (S) 2,631 6.1 -8.0°
